Погода в Бахте

Погода в Бахте : погода сейчас, прогноз погоды и архив. Всё, что Вы хотите узнать о погоде в Бахте!

Поиск расширенной информации на нашем сайте:

Другие новости

Новости СМИ2

Главная страница сайта

Новости сайта

02.10.2013

Напоминаем, что на нашем новом сайте вы можете получить высокодетализированные прогнозы погоды по пунктам России, СНГ и мира (включающие важные для авиации метеовеличины, такие как направление и скорость ветра, видимость, явления погоды, количество и форма облачности, нижняя и верхняя граница облачности), а также ознакомиться с разнообразными материалами по авиационной метеорологии и подборкой полезных ссылок на эту тему.

Сайт Метеоцентр.Азия посвящён разработке технологий оптимизации авиаметеорологического обслуживания, включая проектирование и перспективное создание нескольких автоматизированных авиаметеорологических систем:
- система выпуска высокодетальных прогностических карт явлений погоды для нижнего воздушного пространства по России и ближнему зарубежью;
- система верификации прогнозов TAF (выпускаемых синоптиками официальных АМСГ РФ и ближнего зарубежья) и AUTOTAF (выпускаемых сайтом Метеоцентр.Азия) - выявление ошибок, онлайн-сопоставление с фактической погодой METAR, автоматическое внесение коррективов в прогнозы при резком отклонении фактической погоды от прогноза, подсчёт оправдываемости прогнозов по элементам и в целом;
- система обработки, анализа и отображения авиаметеорологической информации для применения провайдерами метеорологической информации.


Погода в Бахте - сегодня

Время (UTC), дата Ветер
(°,м/с) 
Видим.   Явления Облачность Т
(°С)
Тd
(°С)
f(%) Тe
(°С)
Pmin
(гПа)
dP
(гПа)
Po
(мм)
O2
(г/м3)
Тmin Tmax R s Состояние
почвы
00 26.05.17 270 (З) 20000 м    3/0 верхняя 
[Ci fib]
+1.4 -3.1 72 +1  1007.9  751  302  +1.1         
03 26.05.17 270 (З) 20000 м    3/0 верхняя 
[Ci fib]
+4.6 -4.2 53 +4  1008.8  752  298           
06 26.05.17 270 (З) 20000 м    6/3 600 м верхняя 
[Cu med, cong|Ci fib]
+7.4 -4.2 44 +7  1009.4  0.8  753  296           
09 26.05.17 360 (С) 20000 м    8/6 600 м верхняя 
[Cu med, cong|Ci sp]
+8.4 -5.4 37 +7  1010.6  1.2  754  295           
12 26.05.17 050 (СВ) 20000 м    8/4 600 м верхняя 
[Cu med, cong|Ci sp]
+9.5 -5.2 35 +10  1011.9  1.2  754  294    +9.5       
15 26.05.17 270 (З) 6{10}  20000 м    9/9 600 м кучево-дожд. 
[Cb cap]
+4.6 -1.4 65 +2  1014.3  2.3  756  300           
18 26.05.17 270 (З) н/о  {ливн. осадки}  9/9 600 м кучево-дожд. 
[Cb cap]
+1.4 -3.1 72 -2  1017.2  2.8  758  304           
21 26.05.17 270 (З) 20000 м    1/0 верхняя 
[Ci sp]
+0.4 -3.5 75 -2  1019.2  760  306           
00 27.05.17 270 (З) 20000 м    ясно 
+1.6 -3.5 69 +1  1021  1.8  761  305  +0.2    0.0     
03 27.05.17 270 (З) 20000 м    8/8 600 м 
[Sc]
+4.9 -2.3 60 +3  1022.1  1.1  762  302           
06 27.05.17 270 (З) 20000 м    9/6 600 м верхняя 
[Cu med, cong|Ci sp]
+7.7 -1.2 53 +8  1020.9  -1  761  298           
09 27.05.17 200 (Ю) 20000 м    10/4 600 м средняя 
[Cu hum|As trans]
+8 -2.9 46 +8  1019.8  -1.1  760  298           
12 27.05.17 180 (Ю) 20000 м  слаб. ливневой дождь  10/10 600 м кучево-дожд. 
[Cb cap]
+5.8 +1.8 75 +4  1018.4  -1.5  759  299    +8  0.0     
15 27.05.17 160 (Ю) 10 км  слаб. дождь{ливн. осадки}  10/10 2000 м 
[Ns]
+4.2 +3 92 +4  1016.5  -1.9  758  300           
18 27.05.17 160 (Ю) н/о  слаб. дождь{ливн. осадки}  10/10 2000 м 
[Ns]
+3.6 +2.6 93 +3  1015.7  -0.8  757  301           
21 27.05.17 тихо ()   20000 м  {дождь}  10/10 2000 м 
[Ns]
+3.2 +2.4 94 +3  1015.1  -0.6  757  301           
00 28.05.17 тихо ()   20000 м  {дождь}  10/10 2000 м 
[Ns]
+3.6 +2.9 95 +4  1005.4  0.3  757  301  +3.2       
03 28.05.17 тихо ()   20000 м    10/10 600 м кучево-дожд. 
[Cb cap]
+5.8 +4.9 94 +6  1015.7  0.3  757  298           
06 28.05.17 тихо ()   20000 м    8/8 600 м 
[Cu Sc]
+9.8 +6.1 78 +10  1014.9  -0.7  757  293           
09 28.05.17 050 (СВ) 20000 м    8/0 верхняя 
[Ci sp]
+14.2 +5 54 +15  1013.2  -1.6  755  289           
15 28.05.17 тихо ()   20000 м    4/0 верхняя 
[Ci fib]
+15.4 +5.3 51 +15  1010.3  -0.9  753  286           
18 28.05.17 тихо ()   н/о    3/0 верхняя 
[Ci fib]
+11 +6.8 75 +11  1009.4  -0.9  753  290           
21 28.05.17 тихо ()   20000 м    8/4 600 м верхняя 
[Sc|Ci sp]
+8.2 +1.1 61 +8  1007.3  -2.1  751  294           
00 29.05.17 тихо ()   20000 м    9/0 верхняя 
[Ci sp]
+11.2 +4.6 64 +11  1006.9  -0.4  751  290  +8.2         
03 29.05.17 140 (ЮВ) 20000 м    9/9 2000 м средняя 
[Ac As]
+16.3 +5.5 49 +17  1004.8  -2  749  284           
Время (UTC), дата Ветер
(°,м/с) 
Видим.   Явления Облачность Т
(°С)
Тd
(°С)
f(%) Тe
(°С)
Pmin
(гПа)
dP
(гПа)
Po
(мм)
O2
(г/м3)
Тmin Tmax R s Состояние
почвы

Для получения пояснительной информации подведите курсор к названию столбца.

ПОГОДА в Бахте - архив

Всё, что Вы хотите узнать о погоде в Бахте - удобно и подробно!

Выберите нужную дату (начиная с 1 января 2015* года) и нажмите кнопку "Найти".
Будут отображены архивные сводки погоды по пункту Бахта, начиная с указанной даты.


Отображать данные в формате CSV (для использования в таблицах Excel)


Внимание! Наш архив погоды предназначен исключительно для личного некоммерческого использования в познавательных целях. Если Вам необходимы официальные справки о состоянии погоды (для производственных, юридических, коммерческих и т.п. целей), обращайтесь в органы Росгидромета.

*Примечание: данная дата относится к архиву по метеостанциям СССР (Россия, СНГ, Балтия).
Архив по метеостанциям Зарубежной Европы и Азии (кроме Китая) хранится 10 дней, по другим регионам земного шара (Китай, Африка, Америка, Австралия, Океания) - 1 день.

Бахта - район местоположения метеостанции


Название, широта, долгота, высота метеостанции:
Бахта 62.3°ш. 89.2°д. 58 м над ур. моря [Российская Федерация]

Дополнительная информация

В oтличие oт бoльшинства пoгoдных сайтoв мы публикуем пoдрoбную метеoинфoрмацию в детальнoм прoфессиoнальнoм фoрмате.

Характеристики температуры и влажнoсти вoздуха измеряются на высoте 2 м в тени вдали oт зданий и деревьев.
Скoрoсть ветра измеряется на высoте 10 м (на урoвне рoста челoвека скoрoсть ветра ниже в 1.5-2 раза). Если метеoстанция нахoдится в гoрoде или в лесу, тo скoрoсть ветра занижена на 2-4 м/с пo сравнению с oткрытым местoм. Скoрoсть ветра над акватoриями крупных рек и oзёр, а также на вершинах хoлмoв на 2-5 м/с выше, чем в oбычных услoвиях.
Атмoсфернoе давление в разных тoчках местнoсти мoжет значительнo oтличаться oт давления на метеoстанции, в зависимoсти oт услoвий рельефа (при пoдъёме на 10 м давление пoнижается примернo на 1 мм рт.ст.).